Weather History for Minot AFB, ND

Change the Weather History Date:

Friday, February 8, 2013

  Actual Average Record
Temperature  
Mean Temperature 24 °F -  
Max Temperature 27 °F 21 °F 51 °F (2000)
Min Temperature 21 °F 4 °F -14 °F (2001)
Degree Days  
Heating Degree Days 41    
Moisture  
Dew Point 21 °F    
Average Humidity 94    
Maximum Humidity 100    
Minimum Humidity 86    
Precipitation  
Precipitation 0.00 in - - ()
Snow  
Snow 0.00 in - - ()
Snow Depth 4.00 in    
Sea Level Pressure  
Sea Level Pressure 30.10 in    
Wind  
Wind Speed 9 mph (SSE)    
Max Wind Speed 14 mph    
Max Gust Speed -    
Visibility 7 miles    
Events      
Averages and records for this station are not official NWS values.
T = Trace of Precipitation, MM = Missing Value Source: NWS Daily Summary

Daily Weather History Graph

Daily Weather History Graph

Search for Another Location

Airport:

Trip Planner

Search our weather history database for the weather conditions in past years. The results will help you decide how hot, cold, wet, or windy it might be!

Date:

Astronomy

Feb. 08, 2013 Rise Set
Actual Time 8:03 AM CST 5:56 PM CST
Civil Twilight 7:30 AM CST 6:29 PM CST
Nautical Twilight 6:53 AM CST 7:06 PM CST
Astronomical Twilight 6:17 AM CST 7:42 PM CST
Moon 6:37 AM CST (2/8) 4:29 PM CST (2/8)
Length of Visible Light 10h 58m
Length of Day
9h 52m
Waning Crescent, 3% of the Moon is Illuminated
Feb 8
Waning Crescent
Feb 10
New
Feb 17
First Quarter
Feb 25
Full
Mar 4
Last Quarter

Hourly Weather History & Observations

Time (CST) Temp. Windchill Dew Point Humidity Pressure Visibility Wind Dir Wind Speed Gust Speed Precip Events Conditions
12:16 AM 21.2 °F 9.5 °F 19.4 °F 93% 30.18 in 4.0 mi SE 11.5 mph - N/A   Light Freezing Drizzle
12:55 AM 21.4 °F 10.4 °F 20.1 °F 95% 30.18 in 3.0 mi SE 10.4 mph - 0.00 in   Overcast
1:05 AM 21.2 °F 10.1 °F 19.4 °F 93% 30.18 in 2.5 mi SE 10.4 mph - N/A   Overcast
1:08 AM 21.2 °F 10.1 °F 19.4 °F 93% 30.18 in 2.5 mi SE 10.4 mph - N/A   Overcast
1:22 AM 21.2 °F 10.9 °F 21.2 °F 100% 30.17 in 2.0 mi SE 9.2 mph - N/A   Light Freezing Drizzle
1:28 AM 21.2 °F 10.9 °F 19.4 °F 93% 30.17 in 1.8 mi SE 9.2 mph - N/A   Light Freezing Drizzle
1:31 AM 21.2 °F 11.7 °F 19.4 °F 93% 30.16 in 2.0 mi SE 8.1 mph - N/A   Light Freezing Drizzle
1:41 AM 21.2 °F 10.9 °F 21.2 °F 100% 30.17 in 1.8 mi SSE 9.2 mph - N/A   Light Freezing Drizzle
1:55 AM 21.7 °F 12.3 °F 20.5 °F 95% 30.16 in 1.8 mi SSE 8.1 mph - 0.00 in   Light Freezing Drizzle
2:36 AM 23.0 °F 13.9 °F 21.2 °F 93% 30.15 in 2.0 mi SSE 8.1 mph - N/A   Light Freezing Drizzle
2:53 AM 23.0 °F 13.9 °F 21.2 °F 93% 30.15 in 2.5 mi SSE 8.1 mph - N/A   Overcast
2:55 AM 22.6 °F 14.3 °F 21.7 °F 96% 30.15 in 2.5 mi SSE 6.9 mph - 0.00 in   Overcast
2:57 AM 23.0 °F 14.7 °F 21.2 °F 93% 30.15 in 2.5 mi SSE 6.9 mph - N/A   Overcast
2:59 AM 23.0 °F 14.7 °F 21.2 °F 93% 30.15 in 3.0 mi SSE 6.9 mph - N/A   Overcast
3:17 AM 23.0 °F 13.9 °F 21.2 °F 93% 30.14 in 5.0 mi SSE 8.1 mph - N/A   Overcast
3:41 AM 23.0 °F 14.7 °F 23.0 °F 100% 30.13 in 8.0 mi SSE 6.9 mph - N/A   Overcast
3:59 AM 24.8 °F 17.9 °F 23.0 °F 93% 30.13 in 8.0 mi SE 5.8 mph - N/A   Overcast
4:13 AM 24.8 °F 19.1 °F 23.0 °F 93% 30.12 in 9.0 mi SSE 4.6 mph - N/A   Overcast
4:31 AM 24.8 °F 16.1 °F 24.8 °F 100% 30.12 in 9.0 mi South 8.1 mph - N/A   Overcast
4:55 AM 25.0 °F 16.3 °F 24.3 °F 97% 30.11 in 10.0 mi South 8.1 mph - N/A   Overcast
5:55 AM 24.1 °F 13.7 °F 23.4 °F 97% 30.10 in 10.0 mi SSE 10.4 mph - N/A   Overcast
6:34 AM 23.0 °F 12.4 °F 23.0 °F 100% 30.09 in 10.0 mi SSE 10.4 mph - N/A   Overcast
6:55 AM 23.4 °F 14.3 °F 22.5 °F 96% 30.10 in 10.0 mi SSE 8.1 mph - N/A   Overcast
7:07 AM 23.0 °F 12.4 °F 23.0 °F 100% 30.10 in 10.0 mi SSE 10.4 mph - N/A   Overcast
7:44 AM 23.0 °F 13.1 °F 21.2 °F 93% 30.10 in 10.0 mi SSE 9.2 mph - N/A   Overcast
7:55 AM 21.9 °F 11.0 °F 20.1 °F 93% 30.10 in 10.0 mi SSE 10.4 mph - N/A   Overcast
8:01 AM 21.2 °F 9.5 °F 19.4 °F 93% 30.10 in 10.0 mi South 11.5 mph - N/A   Overcast
8:55 AM 21.6 °F 9.9 °F 19.6 °F 92% 30.09 in 10.0 mi SSE 11.5 mph - N/A   Overcast
8:58 AM 21.2 °F 10.1 °F 19.4 °F 93% 30.09 in 10.0 mi SSE 10.4 mph - N/A   Overcast
9:55 AM 21.2 °F 11.7 °F 18.7 °F 90% 30.10 in 10.0 mi SSE 8.1 mph - N/A   Overcast
10:35 AM 21.2 °F 9.5 °F 19.4 °F 93% 30.09 in 10.0 mi South 11.5 mph - N/A   Overcast
10:55 AM 21.7 °F 10.2 °F 19.4 °F 91% 30.09 in 10.0 mi South 11.5 mph - N/A   Overcast
11:36 AM 23.0 °F 11.1 °F 19.4 °F 86% 30.09 in 10.0 mi SSW 12.7 mph - N/A   Overcast
11:55 AM 22.3 °F 9.7 °F 19.2 °F 88% 30.09 in 10.0 mi South 13.8 mph - N/A   Overcast
12:55 PM 22.5 °F 11.7 °F 19.9 °F 90% 30.05 in 10.0 mi South 10.4 mph - N/A   Overcast
1:55 PM 23.4 °F 12.8 °F 20.7 °F 89% 30.03 in 10.0 mi South 10.4 mph - N/A   Overcast
2:55 PM 23.9 °F 15.0 °F 21.4 °F 90% 30.02 in 10.0 mi South 8.1 mph - N/A   Overcast
4:55 PM 25.0 °F 19.3 °F 22.3 °F 89% 30.00 in 10.0 mi SW 4.6 mph - N/A   Overcast
5:55 PM 25.2 °F - 22.8 °F 91% 30.10 in 10.0 mi Calm Calm - N/A   Overcast
6:55 PM 25.0 °F 18.1 °F 23.0 °F 92% 29.99 in 10.0 mi SE 5.8 mph - N/A   Overcast
7:55 PM 25.0 °F 17.1 °F 23.2 °F 93% 29.99 in 10.0 mi South 6.9 mph - N/A   Overcast
8:55 PM 25.0 °F 18.1 °F 23.4 °F 94% 29.99 in 10.0 mi South 5.8 mph - N/A   Overcast
9:55 PM 25.9 °F 21.7 °F 23.9 °F 92% 29.99 in 10.0 mi WSW 3.5 mph - N/A   Overcast
10:55 PM 27.0 °F 20.5 °F 24.8 °F 92% 29.98 in 10.0 mi West 5.8 mph - N/A   Overcast
11:55 PM 26.4 °F 18.0 °F 24.4 °F 92% 29.96 in 10.0 mi WNW 8.1 mph - N/A   Overcast